sat.trackr.live / text

‹ back to catalog

STARLINK-11262 [DTC]

NORAD 62009 · 2024-213B

PAYLOAD ACTIVE UNKNOWN

§ Identity

Operator
Country
US
Launch date
2024-11-18
Launch site
AFWTR
Launch vehicle
Mass (kg)
RCS (m²)

Purposes: comms

External: N2YO · Heavens-Above · Gunter

§ Orbital elements

Epoch: 2026-09-21T20:52:11.975520Z

Period
91.73 min
Inclination
53.1590°
Eccentricity
0.0000676
Mean motion
15.69801659 rev/d
Perigee alt
359.0 km
Apogee alt
359.9 km
Semi-major
6,737.6 km
B*
1.2452e-3
RAAN
154.4504°
Arg perigee
97.9768°
Mean anomaly
262.1327°
Rev number
10,572

§ Raw data

STARLINK-11262 [DTC]1 62009U 24213B   26264.86958305  .00153674  00000+0  12452-2 0  99942 62009  53.1590 154.4504 0000676  97.9768 262.1327 15.69801659105728

JSON: /api/v1/satellites/62009 · /tle

For live sub-satellite position, see the globe view (requires WebGL).

§ Visibility from observer

Set your observer location to see the next 7 days of passes ≥ 10°. The values pass through the URL so the page stays shareable.

No JS? Fill the form by hand. The geolocation button needs JavaScript.